Stations météo

réclame
Mon MeteoGroup
Hoorn-A, Pays-Bas (6212): Température de l'air & dewpoint: 07.07.2020 22:00:00 - 13.07.2020 22:00:00 (CEST)Hoorn-A, Pays-Bas (6212): Vitesse du vent & gusts: 07.07.2020 22:00:00 - 13.07.2020 22:00:00 (CEST)Hoorn-A, Pays-Bas (6212): Direction du vent: 07.07.2020 22:00:00 - 13.07.2020 22:00:00 (CEST)Hoorn-A, Pays-Bas (6212): reduced air pressure: 07.07.2020 22:00:00 - 13.07.2020 22:00:00 (CEST)Hoorn-A, Pays-Bas (6212): visibility: 07.07.2020 22:00:00 - 13.07.2020 22:00:00 (CEST)
Date & Time tt [°C] td [°C] ff [km/h] ff [knt] fx [km/h] fx [knt] dd ppp [hPa] vv [km]
13.07.2020 22:00:00 17,2 13,2 26 14 25 14 S 1018,7 10
13.07.2020 21:00:00 17,2 13,0 26 14 25 14 S 1018,9 10
13.07.2020 20:00:00 17,2 13,0 22 12 25 14 S 1019,3 48
13.07.2020 19:00:00 17,1 12,9 22 12 29 16 S 1019,8 46
13.07.2020 18:00:00 17,1 13,0 28 15 25 14 S 1020,4 10
13.07.2020 17:00:00 17,1 12,9 26 14 25 14 S 1021,2 10
13.07.2020 16:00:00 16,9 12,7 28 15 29 16 S 1021,8 10
13.07.2020 15:00:00 16,7 13,3 26 14 29 16 S 1022,3 10
13.07.2020 14:00:00 16,6 12,9 29 16 29 16 S 1022,9 10
13.07.2020 13:00:00 16,5 12,9 28 15 29 16 S 1023,5 10
13.07.2020 12:00:00 16,4 13,2 26 14 25 14 SSE 1024,1 10
13.07.2020 11:00:00 16,4 12,8 26 14 25 14 S 1024,4 10
13.07.2020 10:00:00 16,2 12,0 22 12 22 12 S 1024,6 10
13.07.2020 09:00:00 16,2 11,5 21 11 22 12 S 1024,8 10
13.07.2020 08:00:00 16,2 12,0 18 10 18 10 S 1025,0 10
13.07.2020 07:00:00 16,0 12,1 13 7 14 8 S 1025,2 10
13.07.2020 06:00:00 15,5 11,6 5 3 7 4 SSE 1025,5 10
13.07.2020 05:00:00 15,4 10,7 7 4 7 4 SSE 1025,7 50
13.07.2020 04:00:00 15,4 10,3 5 3 7 4 SSE 1026,3 10
13.07.2020 03:00:00 15,4 10,2 4 2 4 2 SSE 1026,6 10
13.07.2020 02:00:00 15,4 10,7 4 2 4 2 SE 1026,9 10
13.07.2020 01:00:00 15,1 11,1 0 0 4 2 N 1027,3 10
13.07.2020 00:00:00 15,3 10,6 0 0 4 2 N 1027,5 10
12.07.2020 23:00:00 15,5 11,1 2 1 7 4 W 1027,8 10
12.07.2020 22:00:00 15,7 10,3 5 3 7 4 W 1027,9 10
12.07.2020 21:00:00 15,9 10,3 4 2 7 4 W 1027,7 10
12.07.2020 20:00:00 16,3 10,5 5 3 7 4 SW 1028,1 10
12.07.2020 19:00:00 15,9 9,9 5 3 7 4 SSW 1028,4 10
12.07.2020 18:00:00 15,8 9,8 9 5 11 6 SW 1028,7 10
12.07.2020 17:00:00 15,8 9,2 11 6 14 8 SSW 1029,0 10
12.07.2020 16:00:00 15,8 9,2 13 7 11 6 SSW 1029,3 10
12.07.2020 15:00:00 15,5 9,9 11 6 11 6 SSW 1029,5 10
12.07.2020 14:00:00 15,3 10,4 11 6 11 6 S 1029,8 10
12.07.2020 13:00:00 15,1 10,7 9 5 11 6 S 1029,7 10
12.07.2020 12:00:00 14,9 10,5 9 5 11 6 SW 1029,6 10
12.07.2020 11:00:00 14,8 10,7 5 3 7 4 SSW 1029,3 10
12.07.2020 10:00:00 14,8 10,7 5 3 7 4 W 1029,3 10
12.07.2020 09:00:00 14,9 10,8 11 6 14 8 W 1028,9 10
12.07.2020 08:00:00 14,5 10,6 13 7 14 8 W 1028,5 10
12.07.2020 07:00:00 14,5 10,5 11 6 14 8 W 1028,0 10
12.07.2020 06:00:00 14,1 10,1 13 7 14 8 W 1027,8 10
12.07.2020 05:00:00 14,1 10,2 15 8 14 8 W 1027,7 10
12.07.2020 04:00:00 14,2 10,0 15 8 18 10 W 1027,6 10
12.07.2020 03:00:00 14,3 9,9 15 8 14 8 W 1027,7 10
12.07.2020 02:00:00 14,4 9,6 11 6 11 6 W 1027,8 10
12.07.2020 01:00:00 14,5 9,5 13 7 14 8 WNW 1027,8 10
12.07.2020 00:00:00 14,6 9,9 13 7 18 10 WNW 1027,6 10
11.07.2020 23:00:00 14,7 9,7 16 9 22 12 NW 1027,6 10
11.07.2020 22:00:00 14,8 10,3 22 12 22 12 WNW 1027,2 10
11.07.2020 21:00:00 15,0 10,0 22 12 25 14 NW 1026,8 10
11.07.2020 20:00:00 14,9 10,6 18 10 22 12 WNW 1026,7 10
11.07.2020 19:00:00 14,6 10,6 22 12 22 12 WNW 1026,4 10
11.07.2020 18:00:00 14,6 10,7 26 14 29 16 W 1026,3 10
11.07.2020 17:00:00 14,5 10,4 25 14 32 18 W 1026,0 47
11.07.2020 16:00:00 14,6 11,1 29 16 29 16 W 1025,7 10
11.07.2020 15:00:00 14,8 10,8 25 14 29 16 W 1025,4 47
11.07.2020 14:00:00 14,9 11,2 28 15 29 16 WSW 1025,2 10
11.07.2020 13:00:00 14,8 10,0 22 12 22 12 WSW 1024,8 10
11.07.2020 12:00:00 14,7 10,4 16 9 18 10 WSW 1024,3 10
11.07.2020 11:00:00 14,5 10,1 15 8 18 10 SW 1024,0 10
11.07.2020 10:00:00 14,6 9,8 13 7 14 8 SW 1023,5 10
11.07.2020 09:00:00 14,5 9,5 11 6 14 8 WSW 1023,0 10
11.07.2020 08:00:00 14,4 9,3 11 6 14 8 WSW 1022,4 50
11.07.2020 07:00:00 14,4 8,9 15 8 14 8 WSW 1022,2 10
11.07.2020 06:00:00 14,2 9,6 11 6 18 10 WSW 1021,9 50
11.07.2020 05:00:00 14,1 9,3 16 9 18 10 WSW 1021,4 10
11.07.2020 04:00:00 14,1 8,8 16 9 18 10 W 1021,4 10
11.07.2020 03:00:00 14,1 9,0 14 8 22 12 W 1021,2 50
11.07.2020 02:00:00 14,1 8,7 18 10 18 10 W 1021,0 10
11.07.2020 01:00:00 14,2 9,3 21 11 22 12 W 1020,6 10
11.07.2020 00:00:00 14,2 8,4 21 11 22 12 W 1020,4 10
10.07.2020 23:00:00 14,2 8,2 16 9 18 10 W 1020,0 10
10.07.2020 22:00:00 14,3 8,7 15 8 14 8 W 1019,5 10
10.07.2020 21:00:00 14,5 8,6 11 6 14 8 W 1019,2 10
10.07.2020 20:00:00 14,6 8,1 13 7 18 10 WNW 1018,8 10
10.07.2020 19:00:00 14,4 8,9 21 11 22 12 WNW 1018,6 10
10.07.2020 18:00:00 14,4 8,8 18 10 25 14 WNW 1018,3 10
10.07.2020 17:00:00 14,3 7,9 22 12 25 14 WNW 1017,7 10
10.07.2020 16:00:00 14,2 8,5 24 13 25 14 WNW 1017,1 10
10.07.2020 15:00:00 13,7 8,6 24 13 25 14 WNW 1016,5 10
10.07.2020 14:00:00 13,6 8,5 26 14 25 14 WNW 1015,8 10
10.07.2020 13:00:00 13,4 9,4 29 16 32 18 NW 1014,9 10
10.07.2020 12:00:00 14,0 11,0 37 20 - - NW 1013,9 10
10.07.2020 11:00:00 14,2 8,8 26 14 32 18 NW 1013,0 10
10.07.2020 10:00:00 14,0 9,4 31 17 32 18 NW 1011,7 10
10.07.2020 09:00:00 14,2 10,1 35 19 36 19 NNW 1010,9 10
10.07.2020 08:00:00 13,7 11,7 35 19 40 21 NNW 1010,3 10
10.07.2020 07:00:00 13,7 11,9 39 21 40 21 NNW 1009,6 10
10.07.2020 06:00:00 14,2 12,1 37 20 36 19 N 1008,8 10
10.07.2020 05:00:00 14,0 12,2 41 22 43 23 N 1008,4 10
10.07.2020 04:00:00 13,9 12,8 41 22 40 21 N 1008,4 10
10.07.2020 03:00:00 13,3 13,1 42 23 43 23 N 1008,9 3,1
10.07.2020 02:00:00 13,4 13,2 42 23 43 23 N 1008,6 3,0
10.07.2020 01:00:00 13,3 13,3 44 24 43 23 NNE 1008,7 2,9
10.07.2020 00:00:00 13,6 13,6 46 25 43 23 NNE 1009,0 2,9
09.07.2020 23:00:00 13,8 13,7 37 20 36 19 NNE 1009,2 2,9
09.07.2020 22:00:00 14,5 14,4 37 20 36 19 NE 1009,1 6
09.07.2020 21:00:00 14,4 14,1 34 18 36 19 NNE 1009,5 2,9
09.07.2020 20:00:00 14,6 14,4 29 16 29 16 NNE 1009,9 3,0
09.07.2020 19:00:00 14,8 14,6 26 14 25 14 NNE 1010,2 2,7
09.07.2020 18:00:00 15,8 15,5 24 13 29 16 SSW 1010,5 3,7
09.07.2020 17:00:00 15,9 15,3 26 14 29 16 SSW 1010,8 10
09.07.2020 16:00:00 16,1 15,4 29 16 32 18 SSW 1010,7 10
09.07.2020 15:00:00 16,1 15,5 28 15 29 16 SW 1010,6 3,3
09.07.2020 14:00:00 16,3 15,4 37 20 36 19 SSW 1010,3 10
09.07.2020 13:00:00 16,2 15,5 35 19 40 21 SSW 1010,2 6
09.07.2020 12:00:00 16,1 15,6 44 24 47 25 SSW 1009,6 5
09.07.2020 11:00:00 16,3 15,5 40 21 54 29 SSW 1009,5 7
09.07.2020 10:00:00 16,2 15,6 44 24 47 25 SSW 1009,6 10
09.07.2020 09:00:00 16,4 15,3 44 24 47 25 SSW 1009,7 10
09.07.2020 08:00:00 16,2 15,7 37 20 40 21 SSW 1009,8 4,0
09.07.2020 07:00:00 15,3 15,0 28 15 36 19 ESE 1010,2 4,6
09.07.2020 06:00:00 14,6 14,2 37 20 36 19 E 1010,8 3,2
09.07.2020 05:00:00 14,5 14,0 35 19 32 18 ENE 1011,5 5
09.07.2020 04:00:00 14,3 13,7 34 18 32 18 ENE 1012,1 3,3
09.07.2020 03:00:00 14,4 13,6 29 16 29 16 ENE 1013,1 4,1
09.07.2020 02:00:00 15,2 13,0 26 14 29 16 NE 1013,8 10
09.07.2020 01:00:00 15,6 12,4 24 13 25 14 ENE 1014,3 10
09.07.2020 00:00:00 15,8 12,3 24 13 25 14 E 1014,7 10
08.07.2020 23:00:00 15,6 11,6 26 14 29 16 NE 1015,1 10
08.07.2020 22:00:00 15,7 11,7 21 11 22 12 NE 1015,3 10
08.07.2020 21:00:00 15,6 11,4 21 11 22 12 NE 1015,3 10
08.07.2020 20:00:00 15,5 11,7 18 10 18 10 NE 1015,8 10
08.07.2020 19:00:00 15,1 11,8 14 8 18 10 NE 1015,6 49
08.07.2020 18:00:00 14,9 11,7 11 6 14 8 NE 1015,9 50
08.07.2020 17:00:00 14,6 11,8 14 8 18 10 NE 1015,9 50
08.07.2020 16:00:00 14,1 12,2 15 8 18 10 NE 1015,9 10
08.07.2020 15:00:00 13,8 12,2 11 6 18 10 NE 1015,8 10
08.07.2020 14:00:00 13,7 12,1 8 4 11 6 NE 1015,5 10
08.07.2020 13:00:00 13,4 11,2 5 3 11 6 NNE 1015,3 10
08.07.2020 12:00:00 13,5 11,9 13 7 14 8 NE 1015,2 10
08.07.2020 11:00:00 13,7 12,1 9 5 14 8 NNE 1014,9 10
08.07.2020 10:00:00 14,0 11,3 5 3 7 4 NNE 1014,8 10
08.07.2020 09:00:00 13,8 11,5 4 2 7 4 - 1014,3 10
08.07.2020 08:00:00 13,5 11,4 4 2 7 4 - 1014,1 10
08.07.2020 07:00:00 13,3 11,5 5 3 11 6 N 1014,1 10
08.07.2020 06:00:00 13,2 12,0 5 3 11 6 N 1014,1 10
08.07.2020 05:00:00 13,0 12,3 5 3 11 6 - 1014,1 8
08.07.2020 04:00:00 13,1 12,3 5 3 18 10 SSW 1014,7 4,5
08.07.2020 03:00:00 13,4 11,1 4 2 11 6 S 1015,3 15
08.07.2020 02:00:00 13,7 11,2 11 6 14 8 S 1015,9 10
08.07.2020 01:00:00 13,3 10,9 13 7 14 8 S 1016,1 10
08.07.2020 00:00:00 13,2 9,9 13 7 14 8 S 1016,4 10
07.07.2020 23:00:00 13,2 9,2 8 4 11 6 S 1016,9 10
07.07.2020 22:00:00 13,2 10,4 8 4 11 6 S 1017,2 10

tt = Température de l'air
td = dewpoint
ff = Vitesse du vent
fx = gusts
dd = Direction du vent
ppp = reduced air pressure
vv = visibility

stations d'obs. à proximité